Change the Weather History Date:

Tuesday, May 21, 2013

  Actual Average Record
Temperature  
Mean Temperature 50 °F -  
Max Temperature 54 °F - - ()
Min Temperature 46 °F - - ()
Degree Days  
Heating Degree Days 15    
Moisture  
Dew Point 43 °F    
Average Humidity 75    
Maximum Humidity 91    
Minimum Humidity 53    
Precipitation  
Precipitation 0.00 in - - ()
Sea Level Pressure  
Sea Level Pressure 29.80 in    
Wind  
Wind Speed 13 mph ()    
Max Wind Speed 24 mph    
Max Gust Speed -    
T = Trace of Precipitation, MM = Missing Value Source: Averaged Metar Reports

Daily Weather History Graph

Daily Weather History Graph

Search for Another Location

Airport or City:

Trip Planner

Search our weather history database for the weather conditions in past years. The results will help you decide how hot, cold, wet, or windy it might be!

Date:

Astronomy

May. 21, 2013 Rise Set
Actual Time 5:25 AM PDT 9:03 PM PDT
Civil Twilight 4:45 AM PDT 9:43 PM PDT
Nautical Twilight 3:51 AM PDT 10:38 PM PDT
Astronomical Twilight 2:34 AM PDT 11:57 PM PDT
Moon 5:05 PM PDT (5/21) 3:18 AM PDT (5/21)
Length of Visible Light 16h 58m
Length of Day
15h 37m
Waxing Gibbous, 85% of the Moon is Illuminated
May 21
Waxing Gibbous
May 24
Full
May 31
Last Quarter
Jun 8
New
Jun 16
First Quarter

Hourly Weather History & Observations

Time (PDT) Temp. Dew Point Humidity Pressure Visibility Wind Dir Wind Speed Gust Speed Precip Events Conditions
12:00 AM 50.7 °F 46.8 °F 86% 29.92 in - WNW 13.8 mph - N/A   Unknown
1:00 AM 50.2 °F 46.6 °F 87% 29.88 in - NW 15.0 mph - N/A   Unknown
2:00 AM 50.0 °F 46.9 °F 89% 29.83 in - NW 19.6 mph - N/A   Unknown
3:00 AM 49.5 °F 46.9 °F 91% 29.83 in - NW 21.9 mph - N/A   Unknown
4:00 AM 48.4 °F 45.1 °F 89% 29.81 in - WNW 24.2 mph - N/A   Unknown
5:00 AM 47 °F 43 °F 82% 29.81 in - WNW 23.0 mph - -  
5:00 AM 47.1 °F 43.3 °F 87% 29.81 in - WNW 23.0 mph - N/A   Unknown
6:00 AM 46.9 °F 42.8 °F 86% 29.81 in - WNW 21.9 mph - N/A   Unknown
7:00 AM 46.6 °F 41.7 °F 83% 29.81 in - NW 18.4 mph - N/A   Unknown
8:00 AM 46.8 °F 41.4 °F 81% 29.80 in - NW 18.4 mph - N/A   Unknown
9:00 AM 47.3 °F 40.5 °F 77% 29.80 in - NW 17.3 mph - N/A   Unknown
10:00 AM 48.7 °F 41.2 °F 75% 29.79 in - NW 15.0 mph - N/A   Unknown
11:00 AM 49 °F 40 °F 64% 29.78 in - NW 13.8 mph - -  
11:00 AM 49.1 °F 40.5 °F 72% 29.78 in - NW 13.8 mph - N/A   Unknown
12:00 PM 50.0 °F 40.6 °F 70% 29.78 in - NW 11.5 mph - N/A   Unknown
1:00 PM 50.5 °F 41.4 °F 71% 29.78 in - NW 9.2 mph - N/A   Unknown
2:00 PM 51.4 °F 41.9 °F 70% 29.79 in - NNW 6.9 mph - N/A   Unknown
3:00 PM 52.5 °F 42.1 °F 68% 29.78 in - North 5.8 mph - N/A   Unknown
4:00 PM 53.1 °F 41.9 °F 66% 29.78 in - NW 2.3 mph - N/A   Unknown
5:00 PM 54 °F 42 °F 53% 29.78 in - NNW 2.3 mph - -  
5:00 PM 53.8 °F 41.7 °F 64% 29.78 in - NNW 2.3 mph - N/A   Unknown
6:00 PM 52.7 °F 41.5 °F 66% 29.77 in - NNW 1.2 mph - N/A   Unknown
7:00 PM 51.8 °F 41.4 °F 68% 29.77 in - Calm Calm - N/A   Unknown
8:00 PM 51.4 °F 42.3 °F 71% 29.78 in - South 3.5 mph - N/A   Unknown
9:00 PM 52.2 °F 42.3 °F 69% 29.78 in - SSE 6.9 mph - N/A   Unknown
10:00 PM 52.0 °F 43.5 °F 73% 29.80 in - ESE 8.1 mph - N/A   Unknown
11:00 PM 52 °F 45 °F 68% 29.80 in - SSE 8.1 mph - -  
11:00 PM 51.8 °F 44.6 °F 76% 29.80 in - SSE 8.1 mph - N/A   Unknown